Tracking 28348 objects as of 9-Dec-2023
HD Live streaming from Space Station
objects crossing your sky now

COSMOS 1275 DEB

Track COSMOS 1275 DEB now!
10-day predictions


NORAD ID: 15768
Int'l Code: 1981-053KG
Perigee: 831.5 km
Apogee: 905.4 km
Inclination: 83.1 °
Period: 102.2 minutes
Semi major axis: 7239 km
RCS: 0.0155 m2 (small)
Launch date: June 4, 1981
Source: Commonwealth of Independent States (former USSR) (CIS)
Launch site: PLESETSK MISSILE AND SPACE COMPLEX (PKMTR)

Note: This is SATELLITE DEBRIS
Your satellite tracking list
Your tracking list is empty




NASA's NSSDC Master Catalog

Two Line Element Set (TLE):
1 15768U 81053KD  23342.79735519  .00002377  00000-0  13371-2 0  9990
2 15768  83.0670 199.3443 0051053 193.2906 290.1066 14.09426140963351
Source of the keplerian elements: AFSPC